Wind_Speed
36 36 36 37 38 39 39 40 41 42 42 43 43 43 44 45 45 44 46 48 48 49 48 49 50 49 51 53 52 52 51 50 50 50 50 49 49 48 48 48 49 50 51 51 52 52 52 51 50 49 48 48 48 48 48 47 47 47 47 46 45 44 44 44 44 43 43 45 46 45 45 46 47 47 48 49 49 50 50 52 54 54 52 53 53 52
35 36 36 37 38 38 39 39 40 41 41 43 44 45 46 47 47 47 49 50 51 52 52 51 52 52 55 57 55 53 53 52 53 52 52 52 51 51 51 51 51 52 53 53 54 54 54 54 54 53 52 51 51 50 50 50 50 50 49 49 48 47 46 46 46 45 45 46 48 47 46 46 46 47 48 49 49 50 51 52 55 55 54 55 54 55
35 36 37 38 38 38 39 39 40 41 42 43 44 46 47 48 49 50 51 52 54 55 56 55 55 56 58 60 59 57 56 56 56 55 55 54 54 54 53 53 53 54 54 55 56 56 56 56 57 57 56 55 55 54 53 53 52 52 52 52 51 50 50 49 49 49 47 47 48 49 48 48 47 47 48 48 49 50 51 52 53 54 54 54 54 55
35 37 37 39 39 40 40 41 42 43 43 45 46 48 49 49 52 53 53 54 56 58 59 58 59 60 61 61 61 60 59 58 58 57 57 56 56 56 56 55 55 55 55 55 56 57 57 58 59 59 59 59 58 57 56 56 55 55 54 54 54 54 53 52 52 52 51 50 49 50 51 50 50 49 49 49 49 49 50 51 52 53 53 53 55 55
35 37 37 39 40 41 42 43 45 45 46 47 49 50 51 52 54 55 56 57 57 58 58 59 62 63 63 62 61 60 59 59 60 59 59 59 59 59 58 58 57 57 57 57 57 57 57 58 59 60 60 61 60 59 58 58 58 58 58 57 57 56 56 56 55 55 55 54 52 53 52 52 52 52 52 51 51 50 50 50 51 52 52 53 55 55
36 37 38 40 41 43 44 45 46 47 48 49 50 51 52 53 54 55 56 58 59 58 57 58 63 66 65 63 63 61 61 61 61 61 61 61 60 60 60 59 59 59 59 59 60 60 60 60 60 60 60 61 62 62 61 61 60 60 61 61 60 60 59 59 59 58 58 58 57 56 55 55 55 54 55 55 54 53 53 52 52 53 53 54 56 56
38 39 41 43 44 45 46 46 47 48 49 49 50 51 52 53 54 56 56 58 60 59 58 58 63 68 66 64 64 63 63 64 64 64 63 62 61 61 60 60 59 59 59 60 60 60 61 61 60 60 60 61 62 63 64 64 64 64 64 64 63 63 62 62 62 61 61 61 60 59 59 58 58 57 57 58 57 56 56 55 55 55 54 55 56 57
40 42 43 44 44 44 45 46 47 49 51 51 53 54 55 56 57 58 58 59 60 61 61 59 61 66 66 64 65 65 64 65 65 65 64 63 62 61 60 60 60 60 59 59 60 60 60 60 60 60 59 60 60 62 63 64 65 66 66 66 66 65 64 64 64 64 64 64 64 63 62 62 61 60 60 60 60 60 59 59 58 58 57 56 56 57
41 41 42 43 44 45 46 48 50 51 53 54 55 56 57 57 58 59 59 60 60 61 63 59 57 62 65 65 65 66 65 65 65 64 63 63 62 61 61 61 60 60 60 60 60 60 60 60 60 60 59 59 59 60 61 63 64 66 66 67 67 66 65 65 65 66 67 67 67 66 65 65 64 64 63 63 63 63 63 62 62 62 61 59 58 58
40 41 43 45 46 47 48 49 50 51 53 54 55 56 56 57 58 59 60 61 62 63 63 59 57 62 66 67 66 68 68 67 66 65 64 63 63 63 63 62 62 62 62 62 62 62 62 62 61 61 60 59 59 58 59 60 62 64 65 66 67 67 67 66 67 68 68 69 69 69 68 67 66 66 66 66 65 65 65 65 65 65 64 63 62 61
42 44 46 47 48 48 49 49 50 52 54 55 56 58 59 59 60 61 62 63 65 67 65 61 61 63 66 68 67 67 68 68 67 66 66 65 65 65 65 65 65 64 63 63 63 63 63 63 63 62 61 61 60 60 59 60 61 62 64 65 66 67 67 67 68 69 70 70 70 70 70 70 68 68 68 68 68 68 68 68 68 68 67 67 66 65
44 45 46 47 48 50 52 52 53 55 57 59 60 62 64 65 65 65 65 65 67 69 67 64 63 62 61 63 63 63 64 64 64 65 66 66 66 66 66 66 65 65 64 64 63 63 63 63 64 63 63 62 62 62 62 62 63 64 66 66 65 66 67 68 68 69 70 70 70 71 71 71 70 69 69 69 70 70 71 71 72 71 70 69 68 68
44 45 46 49 50 52 55 57 58 59 60 62 64 65 67 69 68 68 68 67 68 68 66 63 62 61 60 62 63 63 64 63 63 64 65 65 65 66 67 67 66 66 65 65 65 64 64 64 65 65 65 65 64 64 64 64 64 65 67 69 70 70 69 70 70 71 72 72 71 72 73 73 73 73 73 72 72 73 74 74 75 75 74 73 71 70
42 44 47 52 54 55 58 61 62 63 63 64 65 66 67 68 68 69 70 69 70 70 67 64 65 65 65 66 66 65 65 65 64 64 64 64 64 65 66 66 67 67 66 66 66 66 66 66 66 66 67 67 67 66 66 65 65 65 66 69 72 74 75 76 75 75 75 75 75 75 75 75 76 76 76 76 76 76 76 77 77 78 77 76 75 73
45 46 49 54 57 57 58 60 61 64 65 65 66 66 67 67 67 70 71 72 74 74 71 69 70 69 67 67 67 66 66 66 65 65 64 64 64 64 66 66 66 66 66 66 67 67 67 68 68 68 67 68 69 68 68 67 67 66 66 67 69 72 75 78 80 80 79 79 78 78 78 77 77 77 76 77 77 78 78 79 79 79 79 79 78 77
49 49 51 54 57 58 59 60 61 65 66 67 68 69 70 70 70 72 74 74 74 74 73 71 68 66 63 61 60 58 58 58 58 58 58 59 60 61 62 63 64 65 66 67 68 68 68 69 69 69 67 67 68 69 69 68 68 67 67 67 67 68 71 74 78 82 83 83 82 80 80 79 78 78 77 77 77 78 79 81 82 81 81 80 80 79
54 51 51 54 57 59 61 62 63 65 68 70 72 72 73 73 73 74 74 76 73 69 68 63 56 53 51 50 50 48 49 49 50 53 56 58 61 61 61 61 62 63 64 65 67 68 69 70 70 70 69 68 67 68 68 68 69 68 68 67 67 68 68 70 72 76 80 84 85 84 83 81 80 79 79 78 78 78 79 81 82 83 83 83 82 82
57 55 52 54 58 61 63 66 65 65 69 72 73 74 74 74 74 71 68 67 64 59 59 54 48 47 47 49 53 52 50 50 50 53 55 56 56 56 55 54 54 54 54 56 58 60 63 67 70 72 73 72 71 70 70 70 70 70 70 70 70 70 70 71 72 72 74 78 81 84 85 85 84 82 82 81 80 79 80 80 82 83 84 85 84 84
58 59 56 56 60 63 64 66 68 68 69 72 74 75 72 68 67 63 57 55 54 53 54 49 41 40 42 44 48 48 45 43 42 44 46 46 47 49 49 49 50 52 53 54 55 58 62 68 72 74 75 76 76 75 74 73 72 72 72 72 72 73 73 74 75 75 76 76 77 80 83 85 86 86 86 85 84 83 81 81 81 82 83 84 85 85
57 61 62 60 62 64 64 67 71 73 73 75 77 74 66 59 55 55 51 47 47 48 47 42 35 35 39 42 45 47 46 45 44 47 50 52 54 56 58 58 59 61 63 63 64 66 69 72 74 74 74 76 78 79 78 76 76 75 75 74 75 75 75 76 77 77 78 78 79 79 80 83 85 86 87 88 88 88 86 85 83 82 82 83 84 84
58 61 65 65 63 65 67 70 74 77 79 79 72 64 58 53 51 51 44 37 40 42 43 45 45 46 49 50 50 52 55 56 58 62 65 67 66 67 66 64 64 66 68 69 67 67 68 70 73 76 77 78 80 82 81 81 80 79 78 78 78 78 78 78 78 79 79 80 81 80 80 81 83 85 86 87 88 89 90 90 88 86 85 84 84 85
59 61 65 67 67 68 70 73 76 78 78 73 59 52 53 53 53 54 49 43 45 47 50 57 59 58 59 59 59 60 62 63 65 66 68 68 68 68 67 66 66 69 72 71 67 67 69 72 74 77 79 81 83 85 85 85 85 85 84 82 82 82 82 82 82 81 81 81 82 83 82 82 82 83 84 86 87 88 89 90 91 91 90 89 88 87
59 62 65 68 69 70 72 75 78 78 77 71 56 51 54 53 51 52 54 53 51 52 57 62 63 63 64 65 65 65 63 62 62 63 64 65 65 67 68 70 71 73 75 74 73 74 76 78 78 79 80 82 84 87 88 89 89 89 89 88 86 85 85 85 85 85 84 84 83 84 84 84 84 84 84 84 85 86 87 88 89 91 92 92 91 90
59 63 67 70 71 73 75 77 80 80 80 75 64 55 51 48 46 47 50 54 56 56 59 61 62 63 63 63 65 65 64 63 64 65 66 67 69 71 73 74 76 77 78 79 80 81 83 84 84 85 86 87 88 90 92 93 94 94 94 94 93 91 89 88 88 88 87 86 85 85 84 84 84 85 85 85 85 85 86 86 87 88 89 90 91 91
61 64 69 74 77 80 81 82 84 84 80 73 63 54 47 43 43 44 47 50 54 56 58 61 64 65 65 66 68 68 68 67 67 67 68 70 72 74 76 77 78 80 81 82 83 84 86 87 88 88 89 90 91 91 93 94 96 97 98 98 97 96 95 93 92 91 90 89 88 87 86 85 84 84 84 85 85 85 85 86 86 85 86 87 88 89
62 66 70 75 78 81 84 84 84 83 77 69 61 53 47 45 43 44 46 47 50 52 53 57 62 62 61 63 65 67 67 66 66 67 68 69 70 71 71 71 72 74 75 76 78 80 82 84 85 87 88 89 90 91 92 93 94 96 97 98 99 98 97 97 95 94 93 93 92 91 89 87 85 85 84 84 84 84 84 85 86 85 84 84 85 85
63 66 69 72 74 76 80 80 81 79 74 69 62 54 50 48 46 46 48 49 52 53 51 52 57 59 58 59 61 63 64 64 63 64 63 63 62 62 63 63 64 65 66 69 71 73 75 77 80 82 84 86 88 90 91 93 94 95 97 98 99 99 100 99 98 97 96 96 95 95 93 91 89 87 86 85 85 84 83 84 85 85 84 83 82 82
64 66 68 70 71 73 75 77 79 77 73 70 64 56 52 50 47 47 48 49 52 54 53 51 53 56 56 56 57 58 59 58 56 56 56 56 56 57 59 60 61 61 62 64 66 67 69 71 75 77 79 81 82 84 86 88 90 92 95 97 99 100 101 102 101 100 99 98 97 97 96 94 92 90 88 87 87 86 84 83 83 84 84 83 82 81
64 67 69 70 70 72 75 77 78 74 71 69 63 56 53 50 49 49 49 49 51 53 54 52 52 54 54 53 53 54 54 54 52 52 53 54 55 56 57 58 60 61 62 62 63 64 66 69 71 74 75 76 76 77 78 80 81 84 86 90 93 96 100 103 104 103 103 102 101 100 99 98 96 93 91 89 88 87 85 84 83 84 84 84 83 82
64 67 69 71 71 73 76 77 75 72 70 68 62 56 53 52 51 52 51 50 50 49 50 50 50 51 51 51 51 51 52 53 52 52 53 54 55 55 56 57 58 60 62 62 62 63 64 66 67 68 69 69 69 70 71 72 73 75 77 79 82 86 91 95 99 101 103 103 103 103 103 102 100 98 95 92 90 88 86 85 84 83 83 84 84 83
66 68 71 72 73 74 76 77 75 73 71 68 65 61 58 55 53 52 51 51 51 50 49 49 51 51 49 50 50 50 51 52 52 53 53 53 54 54 55 57 58 60 61 62 63 62 62 62 62 62 62 62 63 63 64 66 67 68 69 72 74 76 80 84 88 92 96 97 99 100 102 104 104 103 100 97 93 91 88 86 84 83 83 83 83 83
67 70 71 73 74 75 77 78 77 75 72 69 67 65 61 58 55 53 53 54 54 52 51 51 53 53 51 51 52 51 52 52 52 52 52 53 54 55 55 56 57 58 60 61 61 60 59 59 57 57 56 57 57 58 59 60 61 62 64 65 67 69 71 73 76 80 83 86 89 92 95 99 102 103 102 100 98 95 92 89 87 84 83 82 83 82
68 71 72 73 75 76 79 80 78 75 74 70 67 66 63 61 59 56 54 54 54 53 53 54 54 53 52 53 53 53 52 51 51 51 52 54 55 55 55 55 55 56 57 58 58 57 57 56 54 53 53 53 54 55 55 56 56 57 58 59 62 63 64 65 67 68 70 72 75 80 85 89 94 97 97 98 98 96 94 92 89 86 84 83 82 82
68 70 71 73 75 77 79 81 79 75 74 70 67 67 66 64 63 61 58 57 55 52 53 54 53 52 52 53 53 53 53 51 50 51 52 54 55 54 54 54 54 53 54 55 56 55 55 54 52 51 51 51 52 52 52 52 53 53 53 55 56 56 57 58 58 57 58 60 63 68 72 77 82 85 87 89 92 92 92 91 89 87 86 84 83 81
67 68 70 72 75 77 79 81 80 76 73 71 70 70 68 67 66 64 61 59 57 55 55 55 54 52 52 51 52 54 54 52 50 49 50 51 52 53 53 52 52 52 52 53 54 54 53 53 51 50 49 49 50 50 50 49 50 50 50 51 51 50 50 50 49 49 50 52 54 57 60 63 68 71 73 76 81 83 84 85 85 84 84 84 83 81
66 68 70 71 74 77 79 80 79 76 73 72 72 71 70 68 67 66 63 59 57 58 59 59 58 56 54 53 52 53 53 52 49 47 49 50 50 51 51 51 51 51 52 52 52 52 52 52 51 50 49 48 47 48 48 48 47 47 47 46 47 45 44 43 41 41 43 45 46 47 49 51 55 58 61 63 67 70 73 75 76 77 79 80 80 79
65 67 69 71 73 76 78 79 78 77 74 72 71 71 71 70 69 69 69 64 59 58 59 59 59 58 56 55 54 53 53 52 48 45 47 49 50 49 49 50 51 51 51 52 52 51 51 51 50 49 49 48 47 47 47 46 45 45 43 42 42 41 39 38 36 36 36 37 39 40 41 43 45 48 50 51 53 56 59 62 64 67 70 72 73 74
64 66 68 70 72 74 77 79 79 78 76 73 72 71 72 71 69 69 69 66 62 60 59 58 58 57 56 56 55 54 54 53 49 46 45 47 48 49 49 48 49 50 50 51 51 51 50 50 49 48 47 47 47 46 46 45 44 43 41 39 38 37 36 34 32 31 31 31 33 34 35 37 39 39 40 41 42 44 47 50 53 56 60 62 64 67
62 64 66 68 70 72 75 78 78 77 76 75 73 71 71 71 69 68 66 62 61 61 60 59 58 57 56 56 55 54 55 54 52 49 47 48 47 49 50 49 49 49 49 49 50 51 51 50 49 47 46 46 46 45 44 44 42 41 39 38 36 35 34 32 30 28 28 27 28 29 30 31 32 32 32 32 33 34 36 39 42 45 49 52 55 58
60 62 64 66 69 71 73 75 76 75 74 75 74 72 71 69 68 67 65 61 59 58 58 59 59 58 57 56 55 54 54 55 54 52 50 50 48 48 50 50 50 50 49 48 48 48 49 49 48 47 45 44 44 44 43 41 40 38 37 36 35 34 32 30 28 27 26 24 24 25 25 25 25 25 25 25 25 26 28 30 33 36 39 42 46 49
60 62 64 65 68 70 72 74 75 74 74 75 74 72 70 68 67 66 65 63 61 60 59 59 59 58 58 57 56 55 54 54 54 53 52 51 50 48 48 49 50 50 50 49 48 47 47 46 46 46 45 44 44 43 42 40 38 37 36 35 33 32 31 29 27 25 24 23 22 21 21 20 20 19 19 19 19 20 21 23 25 28 31 34 37 40
62 64 65 65 67 69 71 74 75 75 74 74 74 71 69 69 69 67 66 65 64 63 61 60 59 59 59 58 57 56 55 54 54 53 52 52 50 49 48 49 48 48 49 48 48 47 46 46 45 45 44 44 43 42 41 40 38 36 35 34 33 32 31 29 27 25 23 21 20 19 18 17 16 16 15 16 16 16 18 20 21 23 26 29 31 34
64 65 66 66 67 68 70 72 75 74 74 75 76 74 71 69 69 69 67 65 64 63 63 61 60 60 60 59 58 56 55 53 53 52 52 51 50 49 49 49 49 48 48 47 47 46 46 45 44 43 43 42 42 41 40 39 38 36 35 34 33 32 30 29 27 25 23 21 19 18 16 15 14 13 13 13 14 15 17 19 20 22 24 26 29 31
64 66 67 67 68 69 69 70 71 72 74 76 77 76 72 70 68 68 66 64 63 63 63 63 62 61 60 60 58 57 55 53 52 52 51 50 50 49 49 48 48 48 47 47 46 46 45 44 43 42 42 41 41 40 39 38 37 36 35 34 33 31 30 28 26 24 22 20 18 16 15 14 13 13 13 13 14 15 17 19 21 22 24 26 28 30
65 67 67 68 69 69 69 70 71 71 73 75 75 75 73 69 66 64 63 63 63 63 63 63 63 62 62 61 60 59 57 55 53 52 51 50 49 49 49 48 48 47 47 46 46 46 45 44 43 42 41 40 39 39 38 38 37 35 34 34 32 31 29 27 25 24 21 19 17 16 15 14 13 13 14 14 15 16 17 19 20 22 23 25 26 28
66 68 68 69 69 69 70 71 72 71 71 73 74 74 74 71 66 63 62 62 63 63 63 64 64 64 64 63 63 61 59 57 56 54 52 51 50 49 49 48 47 47 46 46 45 45 45 44 43 42 41 40 39 38 37 36 35 34 33 33 31 30 28 26 24 23 21 19 17 17 16 15 14 15 15 15 15 16 17 18 19 20 22 23 24 25
67 68 69 70 70 71 71 71 72 71 71 73 73 72 72 72 69 64 62 62 62 62 63 64 64 65 65 65 64 64 61 59 58 56 54 52 51 50 49 49 48 47 46 45 44 44 44 44 43 41 40 39 38 37 35 34 34 33 32 31 30 29 28 26 24 22 20 19 18 17 16 15 15 15 16 16 16 17 18 18 19 20 21 21 22 23
67 68 70 71 71 71 72 72 72 72 71 73 74 73 73 73 70 66 63 62 62 62 63 64 64 65 65 65 65 65 63 61 59 57 55 53 52 50 50 49 48 47 46 45 44 44 44 43 42 41 40 39 38 36 35 33 32 32 31 30 28 27 27 26 24 22 20 18 17 16 16 16 16 16 17 18 18 18 18 19 19 20 20 20 21 21
66 68 70 71 72 72 73 73 73 72 70 70 72 72 72 73 71 68 65 63 62 62 63 64 65 66 67 67 67 66 64 62 60 58 56 54 52 51 50 49 49 48 47 45 43 43 43 43 42 41 40 39 38 36 35 33 31 31 30 29 27 25 25 24 24 22 20 18 17 17 17 17 17 18 19 19 19 19 19 19 19 19 20 20 20 21
66 67 69 71 72 73 74 74 75 75 74 73 72 72 72 72 71 69 66 64 62 63 64 64 65 66 67 67 67 67 65 62 61 59 57 55 53 52 51 50 49 48 47 46 44 43 42 42 42 41 40 39 38 37 35 33 31 30 30 29 28 25 24 23 22 22 21 20 19 18 18 19 19 20 20 21 21 20 20 19 19 20 20 20 20 20
65 67 68 70 71 73 74 74 75 76 77 77 75 74 73 73 72 71 69 67 64 64 65 66 67 67 66 65 66 66 65 63 61 60 58 56 54 53 52 51 50 49 47 46 45 43 42 42 41 40 39 39 38 37 36 34 32 30 29 29 28 26 24 22 21 21 21 21 21 20 20 21 21 22 22 22 21 21 21 21 20 20 20 21 21 21
Wind_Direction
298 298 299 299 299 299 300 300 300 300 300 300 299 299 299 298 298 297 295 293 293 292 292 291 291 291 288 287 288 288 287 286 285 284 282 281 279 277 275 273 273 273 273 274 274 274 274 273 271 270 269 269 269 269 269 268 267 267 268 267 267 267 267 266 265 263 263 264 264 264 264 264 263 262 261 259 259 258 257 257 258 259 260 262 262 261
301 301 301 301 301 301 301 301 301 301 301 301 300 300 299 299 298 296 295 294 293 292 292 292 291 290 288 287 287 287 286 285 284 283 283 282 280 278 276 274 271 270 269 269 270 271 271 272 271 271 270 268 267 267 267 267 266 265 265 265 265 265 265 265 265 264 262 262 263 263 262 262 262 261 260 259 258 258 257 257 258 259 259 260 262 261
303 302 302 302 302 302 302 301 301 301 301 301 300 299 298 298 296 295 294 294 293 292 292 291 291 289 287 287 287 286 285 284 283 283 282 281 280 279 278 276 273 271 269 268 268 267 267 268 269 269 270 269 267 266 265 265 264 264 263 263 264 264 264 264 265 264 263 261 262 263 261 261 260 260 259 259 259 259 258 258 259 260 260 260 261 261
305 305 305 305 305 305 305 304 303 302 302 301 300 299 298 297 295 295 294 293 292 292 293 292 290 289 287 287 287 286 286 285 284 283 282 281 279 279 278 276 275 274 272 271 269 268 266 266 266 266 267 267 267 266 265 264 263 262 262 262 262 263 263 264 264 263 262 261 260 261 261 261 260 259 259 258 258 258 259 259 260 261 261 261 262 261
306 306 306 306 305 305 304 304 303 303 302 302 301 300 299 297 297 296 295 293 292 292 293 293 291 289 288 288 287 287 286 285 284 283 282 280 279 278 277 276 276 275 274 273 271 270 268 266 265 264 264 264 264 264 264 262 261 261 261 261 262 262 262 263 263 262 261 260 259 259 259 259 259 259 258 258 257 256 257 258 259 260 260 260 260 259
308 307 307 306 305 305 305 305 304 304 303 302 301 300 299 299 298 297 297 295 294 293 293 294 292 290 289 290 289 289 287 285 284 283 282 281 280 280 279 278 278 276 275 274 273 272 270 269 267 265 264 263 262 262 262 261 260 260 260 261 261 262 262 262 261 260 259 259 257 257 257 257 257 258 258 257 257 257 256 256 256 256 257 257 257 257
309 308 308 308 308 308 308 307 306 305 303 302 301 301 300 300 299 298 297 296 295 295 293 293 293 292 292 291 290 289 287 286 285 284 283 282 282 282 281 280 278 277 276 275 274 273 272 271 269 267 265 263 262 261 261 260 260 260 259 260 260 261 261 261 259 258 257 256 255 255 255 255 255 256 256 257 257 257 257 257 256 256 256 256 258 259
311 311 311 310 310 310 309 309 308 307 305 304 303 302 301 301 300 300 299 298 297 296 294 294 294 294 293 292 289 287 286 285 285 284 284 284 284 282 281 279 278 277 276 275 274 273 272 271 270 269 267 265 263 261 260 259 259 259 259 259 259 259 259 259 257 256 254 254 253 253 252 252 253 253 254 256 256 256 256 256 256 256 255 255 257 259
313 312 311 310 310 310 310 310 310 309 307 306 305 304 303 303 302 302 300 299 298 296 295 297 297 294 292 291 290 289 287 286 285 284 284 284 283 282 280 279 278 277 275 274 274 273 272 271 270 269 268 266 264 262 260 259 258 258 258 258 258 257 257 256 255 254 252 252 252 252 251 251 251 251 252 253 255 255 255 255 255 255 254 253 253 255
312 311 311 311 311 312 312 312 312 311 309 308 307 305 304 303 302 300 299 298 296 293 294 297 294 291 291 291 290 289 287 286 285 284 283 282 281 281 281 280 279 277 276 274 273 272 272 271 270 269 268 266 264 261 259 257 256 256 256 256 256 255 255 254 253 252 251 250 250 251 251 250 250 250 250 251 253 253 254 254 254 254 253 253 252 251
313 313 314 315 315 315 315 315 314 313 310 309 308 305 304 303 301 300 299 298 296 294 297 298 294 293 293 292 292 291 289 288 287 285 284 282 282 281 280 280 279 278 277 275 274 273 272 271 271 270 268 266 264 261 258 255 253 253 254 254 253 253 252 251 251 250 249 249 249 249 250 250 250 250 250 251 252 252 253 253 252 252 252 252 251 251
316 317 317 318 319 318 317 316 315 313 312 311 309 308 306 305 304 302 302 301 298 299 301 300 298 297 294 293 292 292 291 290 289 288 287 286 284 282 280 279 278 278 277 276 275 274 273 272 271 270 269 268 266 264 261 258 255 252 251 251 252 251 250 250 250 250 250 249 249 249 250 250 251 251 251 252 252 253 253 252 251 251 250 250 250 249
318 320 321 321 320 320 318 317 316 314 313 312 311 311 309 309 308 305 303 302 300 300 301 300 298 295 291 289 289 289 289 288 287 286 286 285 284 282 281 280 279 278 277 277 276 275 274 273 272 272 271 270 269 267 265 263 260 256 252 250 250 251 250 250 249 250 251 252 252 252 252 252 252 252 253 253 253 253 253 252 251 250 249 248 248 248
319 321 323 322 321 321 320 319 318 315 314 313 312 312 311 310 309 306 304 302 300 299 299 298 296 293 290 288 287 287 286 285 284 283 283 282 281 280 279 279 279 278 277 277 276 275 274 273 272 272 271 270 269 268 267 265 263 261 257 254 252 251 251 251 251 251 252 253 253 254 254 255 255 254 254 254 254 253 252 252 251 250 249 248 247 247
323 323 324 324 322 321 321 320 319 317 316 314 313 312 311 310 309 307 305 303 302 301 300 298 296 293 292 290 289 288 286 285 285 285 284 283 281 280 279 279 278 278 277 277 275 274 273 272 271 270 270 270 269 268 268 267 265 263 261 258 256 253 252 252 252 253 254 255 256 255 255 255 255 255 255 255 254 253 251 251 250 250 249 248 247 246
325 327 327 325 323 322 321 320 320 319 318 316 315 313 312 311 309 306 304 303 303 301 299 299 298 295 293 291 289 288 286 285 285 284 283 282 281 281 280 279 279 279 278 277 275 274 272 271 270 268 268 268 268 267 266 266 265 265 263 261 259 257 255 253 252 252 252 254 255 256 256 255 255 255 255 254 253 252 251 250 249 249 249 248 248 247
325 326 327 325 322 322 322 322 323 322 320 318 317 315 313 311 308 305 303 302 301 299 298 300 299 295 292 286 282 280 279 279 278 278 279 278 279 279 278 277 277 278 277 276 276 275 274 272 271 269 267 267 267 266 266 265 265 264 263 262 261 259 257 255 253 252 252 252 252 253 254 255 255 254 254 253 253 252 251 250 249 249 249 249 249 248
325 325 327 326 323 323 325 324 324 323 321 320 317 315 312 308 306 304 302 302 301 299 298 298 295 289 283 278 277 276 276 277 277 277 276 274 274 273 272 272 272 272 272 272 273 273 273 272 272 273 271 269 267 266 266 265 264 264 263 262 262 260 259 257 254 252 252 252 253 253 252 252 252 252 253 253 252 252 251 250 250 249 249 250 250 249
327 326 328 329 327 327 327 325 324 323 321 319 317 315 312 308 305 303 301 301 301 298 295 294 287 278 273 273 276 277 275 273 271 271 269 268 268 268 267 267 267 267 268 268 269 269 271 272 274 274 274 271 269 267 267 266 265 264 263 262 261 260 259 258 256 254 252 251 251 252 253 253 252 251 251 251 251 251 251 250 250 250 250 250 250 251
330 328 329 332 331 330 329 327 326 325 323 322 321 317 312 306 299 296 298 300 296 291 287 282 272 267 269 272 274 275 274 272 271 274 276 277 277 278 277 276 275 274 274 273 273 273 274 275 275 273 272 272 270 269 268 267 266 265 264 263 262 261 260 259 258 256 255 253 251 250 252 253 254 253 251 250 250 250 251 251 250 250 250 250 250 250
332 330 330 333 333 332 332 331 331 330 330 329 325 317 310 300 291 291 294 287 279 279 282 280 276 274 275 275 274 276 277 277 277 279 282 283 283 283 283 282 281 279 278 277 276 275 274 275 275 274 273 272 271 269 268 267 266 265 264 264 264 263 261 260 259 258 257 256 254 252 251 251 253 254 253 252 251 251 250 250 250 250 250 250 250 250
334 332 332 334 335 334 334 334 335 336 335 332 321 306 299 293 286 287 286 274 266 269 277 284 286 286 284 283 282 282 282 282 281 280 280 281 281 281 280 279 279 278 278 277 275 273 272 272 273 273 273 273 272 270 269 267 267 266 265 265 265 265 264 263 261 260 258 257 256 255 254 252 252 252 253 253 253 252 252 251 251 250 250 250 250 250
335 334 333 335 335 335 336 338 340 340 337 334 322 305 297 292 288 289 289 284 278 273 275 280 284 286 287 287 287 286 285 283 282 281 280 279 279 278 278 277 278 278 277 276 274 273 273 273 273 273 273 274 274 273 272 271 270 269 268 267 266 266 266 265 264 262 260 259 258 257 256 254 253 252 252 252 253 253 253 252 252 252 251 251 250 250
336 335 334 334 334 335 337 339 340 340 339 336 329 317 309 303 299 296 293 293 291 288 286 285 285 286 288 288 289 288 286 284 283 281 280 279 279 278 278 278 278 278 278 277 276 276 275 275 274 274 274 274 274 274 274 273 273 272 271 271 269 268 267 266 265 264 263 261 260 258 257 256 255 253 252 252 252 252 252 252 252 252 252 252 251 251
337 337 337 338 339 340 341 342 342 343 342 339 331 324 319 314 308 302 297 293 291 290 290 290 289 288 289 290 290 290 289 288 287 285 284 284 283 282 282 282 282 282 281 280 280 279 278 277 276 275 274 274 273 273 272 272 272 272 272 271 270 270 269 267 266 265 264 263 262 260 259 257 256 255 254 252 251 251 252 252 252 252 253 253 252 252
338 339 341 343 345 346 347 348 348 347 345 340 332 328 325 321 316 310 305 300 295 292 292 291 290 290 290 291 291 291 291 290 289 288 288 288 288 288 287 286 285 285 285 284 282 281 280 279 278 277 276 275 274 273 272 271 271 271 271 271 270 269 269 268 267 266 265 264 263 262 261 259 258 257 256 255 253 251 251 252 252 252 252 253 253 253
340 341 343 345 347 348 349 349 349 348 346 340 334 330 328 325 320 316 312 307 302 300 299 297 294 294 293 292 292 292 291 292 292 291 291 291 291 292 292 292 291 291 291 289 287 286 284 283 281 279 277 275 274 273 272 272 271 271 270 270 270 269 268 268 267 266 265 265 264 263 262 261 260 259 258 257 256 254 253 252 252 252 252 252 253 253
340 342 344 346 347 348 348 348 349 349 347 342 337 332 329 328 324 321 318 312 306 305 304 302 299 297 297 296 295 295 295 295 296 296 297 298 300 301 302 302 300 299 297 295 294 293 291 289 286 283 281 279 277 275 274 272 271 271 270 269 269 268 268 268 267 266 265 265 264 264 263 262 261 260 259 258 258 257 256 255 254 253 252 252 251 252
341 343 345 347 347 347 347 349 350 350 348 346 341 333 330 329 327 326 323 316 311 309 307 307 305 302 302 302 301 301 301 302 303 304 306 308 308 308 308 306 304 302 301 300 300 298 296 294 292 290 288 286 284 282 280 277 275 273 272 271 269 268 267 267 266 266 265 265 265 264 264 263 261 260 259 258 258 257 257 256 256 255 254 253 252 251
342 344 345 347 347 347 348 351 351 350 349 348 345 337 332 331 330 330 327 320 315 312 310 309 307 305 306 306 306 306 306 306 308 310 310 311 310 309 308 307 306 306 306 305 304 303 300 298 297 296 294 292 291 289 287 284 282 279 277 274 272 271 269 268 267 266 265 265 264 264 264 263 262 261 259 258 258 257 257 256 256 256 255 254 253 252
344 345 346 347 347 348 350 351 351 350 349 348 347 344 339 335 332 331 329 325 322 320 318 314 311 311 312 310 308 308 308 309 311 312 312 312 312 311 310 311 311 310 310 310 310 309 307 305 304 303 300 297 295 293 292 290 288 285 283 280 277 275 273 271 269 267 266 265 264 264 263 263 262 261 260 259 258 257 257 256 256 256 255 255 254 253
345 347 347 347 348 349 351 352 352 351 349 348 348 347 343 338 335 334 333 331 328 326 323 319 317 317 316 313 311 311 311 311 312 313 314 314 314 314 313 314 313 313 313 314 315 314 314 313 312 310 307 303 301 298 296 294 292 290 288 286 283 281 278 276 274 271 269 268 266 265 264 263 262 261 261 260 259 257 256 256 255 255 255 255 255 255
347 348 349 348 349 350 351 353 353 350 349 349 347 344 343 342 340 339 337 334 332 329 325 322 322 320 317 315 314 313 313 313 314 316 317 317 316 315 315 315 315 316 316 316 317 317 317 317 317 315 312 309 306 303 301 299 297 295 293 291 288 287 285 283 280 278 275 272 269 266 264 263 263 262 261 261 260 258 257 256 255 254 254 254 254 255
348 349 349 349 349 351 352 353 354 350 348 347 345 342 343 344 343 343 342 338 335 331 327 325 324 321 318 317 315 315 316 317 318 319 318 316 315 316 317 317 317 318 318 318 318 319 319 320 320 318 316 313 311 308 306 304 301 299 297 295 293 291 289 287 286 284 280 276 272 268 266 264 264 263 262 261 260 259 258 257 255 254 253 253 253 253
348 349 350 350 350 351 352 354 354 351 347 345 343 342 343 344 343 343 344 342 337 332 331 329 326 323 321 320 319 318 319 319 319 319 316 315 315 316 318 319 319 319 319 319 319 320 320 321 322 321 319 317 315 314 311 309 305 303 301 299 298 296 293 291 289 287 283 280 276 273 270 267 266 264 263 261 260 260 258 258 256 254 253 252 252 252
349 349 350 351 351 352 353 354 353 351 348 345 344 342 342 343 342 341 343 346 341 336 334 331 329 327 326 324 322 320 319 320 321 320 317 316 317 317 318 320 319 319 320 320 321 321 321 322 323 324 323 322 320 317 315 313 311 309 307 305 303 301 299 296 294 289 285 283 280 277 274 271 268 266 264 262 260 260 258 257 256 254 253 252 251 251
349 349 350 351 352 352 353 354 353 351 348 346 345 343 342 343 343 341 343 347 344 338 336 333 331 330 328 326 324 322 320 322 324 322 318 316 318 319 319 320 320 320 321 322 323 322 322 323 324 325 324 324 323 320 318 317 316 314 313 311 309 306 304 302 298 294 289 286 283 280 277 273 271 268 266 264 262 260 258 256 254 253 252 251 250 250
348 350 351 351 352 352 353 354 354 351 348 346 345 345 342 343 344 342 342 345 343 339 337 335 333 332 329 327 325 324 323 324 326 325 320 318 319 320 320 321 320 321 322 323 324 324 323 323 324 325 324 323 323 322 321 321 321 320 319 317 314 312 310 307 304 300 295 290 286 282 279 276 274 272 269 267 264 261 258 255 253 251 250 249 249 248
348 350 351 351 352 353 354 355 354 351 348 345 344 344 343 343 342 341 341 343 343 339 337 336 334 333 331 329 327 326 325 325 327 327 324 320 320 320 321 322 321 321 323 324 324 325 324 324 325 325 325 324 323 323 323 323 323 323 323 321 319 317 315 313 310 306 301 295 290 286 282 279 277 275 272 269 265 261 258 255 252 250 248 247 247 246
347 349 351 352 352 353 354 356 356 353 349 346 343 344 344 342 340 339 340 342 343 342 339 337 336 335 332 331 330 328 327 327 327 328 326 323 322 322 321 322 322 322 323 324 324 324 324 324 324 324 325 324 323 323 323 324 325 324 324 323 321 320 319 317 315 312 308 303 297 292 288 285 281 279 275 270 265 262 258 255 252 250 248 246 245 245
348 350 352 353 354 354 354 356 357 355 351 348 345 343 342 340 340 340 341 342 343 343 342 340 338 336 334 333 331 330 329 328 327 327 327 325 323 322 321 321 321 322 323 324 324 324 323 324 324 325 325 325 324 324 324 325 325 325 324 324 322 322 321 320 319 317 314 310 306 300 296 292 288 284 279 274 268 264 260 256 253 251 249 247 245 245
350 352 353 354 355 355 355 356 357 356 352 349 348 346 342 341 341 342 342 343 343 342 342 341 340 338 336 335 333 332 331 329 327 327 327 326 324 323 321 321 321 321 322 323 323 323 323 324 324 325 325 325 325 325 325 325 326 325 325 324 324 323 323 322 322 321 319 315 311 307 302 297 292 287 282 277 271 266 262 258 254 251 249 248 246 246
353 353 355 355 355 356 356 356 357 355 352 350 350 349 346 343 342 343 342 343 342 341 341 341 341 339 337 337 335 333 331 329 327 326 326 326 325 323 322 321 320 320 321 321 321 321 322 323 324 324 324 324 324 325 326 325 325 325 324 323 323 323 323 322 322 322 320 317 313 308 304 300 294 288 282 276 271 266 261 258 255 252 250 248 248 248
355 355 356 356 355 355 356 357 357 356 353 352 351 350 348 344 343 342 341 340 340 340 340 341 341 339 337 336 335 334 332 329 327 326 325 326 325 324 322 321 320 320 320 320 320 321 321 322 323 324 324 323 323 324 325 325 325 324 323 321 321 321 321 321 321 319 318 315 311 306 302 298 292 287 282 277 272 268 264 261 260 257 255 253 252 251
357 357 357 357 356 355 355 355 357 357 356 354 352 350 349 346 343 341 340 339 339 340 340 340 340 339 337 336 335 334 332 330 328 327 326 326 325 324 323 322 320 320 320 320 320 320 320 321 322 322 322 322 323 324 325 325 325 324 322 320 319 318 319 319 318 316 314 311 307 303 299 294 290 286 282 279 275 272 269 267 265 263 261 258 256 255
357 357 357 358 357 356 355 355 356 357 356 356 355 353 350 348 345 343 341 340 340 340 340 340 339 338 337 336 335 334 333 331 330 329 327 326 325 324 323 322 321 320 319 319 319 319 319 319 320 320 321 321 322 323 325 325 324 323 321 319 317 316 317 316 315 312 310 307 303 300 296 293 291 288 285 282 278 276 273 271 269 267 265 262 259 257
357 357 357 358 357 356 357 356 356 356 355 355 356 355 353 351 348 345 343 342 341 340 339 339 339 338 337 336 334 334 334 332 331 330 328 326 325 324 323 322 322 320 319 318 317 317 317 317 318 318 318 318 320 322 324 324 324 322 320 319 316 314 313 313 311 309 306 304 301 298 296 294 292 291 289 287 284 281 279 276 274 271 268 265 262 259
356 356 356 357 356 356 356 357 357 357 355 354 354 354 354 353 351 347 344 342 342 341 340 339 338 337 337 336 335 334 334 333 331 330 329 327 326 325 324 322 322 321 319 318 317 316 316 316 315 315 315 316 317 319 321 323 322 321 320 319 316 312 310 309 307 305 303 301 299 296 294 294 293 293 292 290 288 285 282 279 277 274 271 268 265 262
355 355 355 356 356 355 356 356 356 357 356 355 354 354 354 354 353 350 346 343 342 341 341 340 339 338 337 336 335 335 335 334 332 330 330 328 327 325 324 323 322 321 319 318 316 315 314 314 313 313 314 314 315 316 318 319 320 321 321 320 318 314 310 307 305 302 299 297 295 292 290 291 291 292 292 291 289 286 283 281 279 277 275 271 268 264
353 354 354 354 355 355 355 355 355 355 356 356 355 355 354 354 354 352 348 345 343 342 342 342 341 340 339 337 336 335 335 334 333 331 330 329 328 326 325 324 322 321 319 318 316 314 312 312 311 312 312 312 312 313 314 315 316 318 319 320 320 316 312 308 304 300 295 292 290 289 288 288 289 289 289 289 287 285 283 281 280 279 277 273 270 267
351 352 353 353 354 354 354 355 354 354 355 355 355 354 354 354 353 352 350 348 345 343 342 342 342 342 341 340 337 336 335 334 333 332 331 330 329 327 326 324 322 321 320 318 316 314 312 310 309 310 310 310 310 309 310 311 312 313 314 316 317 317 313 309 304 299 294 290 287 287 286 287 287 287 287 286 285 284 283 282 281 279 277 274 271 269
Height
5727 5725 5722 5720 5718 5716 5713 5711 5708 5706 5704 5702 5700 5698 5696 5694 5693 5692 5687 5685 5684 5680 5680 5677 5674 5673 5669 5667 5668 5666 5665 5664 5662 5661 5660 5659 5658 5657 5656 5655 5653 5651 5650 5649 5648 5648 5647 5647 5646 5646 5645 5645 5644 5642 5641 5641 5640 5639 5639 5639 5639 5638 5638 5638 5637 5638 5637 5635 5634 5636 5636 5636 5637 5637 5637 5637 5638 5639 5639 5639 5638 5639 5640 5639 5639 5640
5723 5722 5719 5717 5715 5713 5710 5708 5705 5703 5700 5698 5695 5693 5692 5688 5687 5686 5681 5679 5678 5675 5674 5672 5668 5667 5662 5660 5662 5661 5659 5657 5656 5654 5653 5652 5651 5650 5649 5648 5647 5645 5644 5643 5642 5641 5640 5639 5639 5638 5638 5638 5637 5636 5635 5635 5634 5633 5633 5632 5632 5632 5632 5632 5631 5632 5632 5630 5629 5629 5630 5630 5630 5631 5631 5631 5631 5632 5632 5632 5632 5633 5633 5633 5633 5633
5720 5718 5716 5713 5711 5709 5706 5704 5701 5699 5697 5694 5691 5688 5687 5684 5680 5680 5677 5673 5671 5668 5668 5666 5662 5660 5655 5653 5654 5653 5652 5650 5648 5648 5646 5645 5643 5642 5641 5640 5639 5638 5636 5636 5635 5634 5633 5632 5632 5631 5631 5630 5630 5629 5629 5628 5627 5627 5626 5626 5625 5625 5625 5625 5625 5625 5625 5625 5623 5623 5623 5623 5623 5623 5624 5624 5625 5625 5625 5626 5626 5627 5627 5627 5627 5627
5717 5714 5712 5709 5707 5704 5702 5699 5696 5695 5693 5689 5686 5683 5681 5679 5674 5673 5672 5668 5665 5662 5660 5658 5655 5651 5648 5647 5646 5645 5644 5642 5640 5640 5638 5637 5635 5634 5633 5631 5630 5630 5629 5628 5627 5626 5626 5625 5624 5623 5623 5622 5622 5621 5621 5621 5620 5619 5619 5618 5618 5618 5618 5618 5618 5618 5618 5619 5618 5616 5616 5617 5617 5617 5617 5617 5618 5619 5618 5619 5620 5620 5621 5621 5621 5621
5714 5711 5709 5706 5703 5700 5698 5695 5691 5689 5688 5684 5680 5677 5675 5672 5669 5666 5664 5661 5659 5658 5655 5650 5645 5642 5641 5639 5639 5639 5637 5635 5632 5631 5630 5628 5627 5625 5624 5623 5622 5621 5620 5619 5618 5618 5617 5617 5616 5615 5614 5614 5614 5613 5613 5613 5612 5612 5611 5611 5610 5610 5610 5610 5610 5610 5610 5611 5611 5610 5610 5610 5610 5610 5610 5610 5611 5611 5611 5612 5613 5613 5614 5615 5615 5615
5710 5707 5705 5702 5699 5696 5693 5690 5687 5684 5683 5680 5676 5672 5669 5666 5663 5660 5656 5652 5651 5652 5651 5646 5635 5630 5632 5631 5630 5630 5628 5626 5624 5622 5621 5619 5617 5616 5615 5614 5613 5612 5611 5610 5609 5608 5607 5607 5606 5606 5606 5605 5605 5604 5604 5604 5603 5603 5603 5602 5602 5602 5602 5602 5602 5602 5602 5603 5603 5603 5603 5603 5603 5603 5603 5602 5603 5604 5604 5605 5606 5605 5606 5607 5606 5607
5707 5704 5701 5698 5695 5692 5688 5685 5682 5679 5677 5675 5671 5667 5664 5660 5657 5654 5651 5645 5642 5642 5644 5643 5631 5620 5621 5622 5621 5620 5618 5616 5615 5613 5612 5611 5609 5608 5606 5605 5603 5602 5601 5600 5599 5598 5597 5596 5596 5596 5596 5596 5595 5595 5594 5594 5594 5594 5594 5593 5593 5593 5593 5593 5593 5593 5593 5594 5594 5595 5595 5595 5595 5596 5595 5595 5596 5597 5597 5598 5598 5599 5600 5600 5599 5600
5703 5700 5697 5694 5690 5687 5684 5680 5676 5673 5670 5668 5665 5661 5657 5654 5650 5647 5643 5639 5635 5632 5633 5638 5629 5613 5610 5612 5611 5610 5609 5607 5606 5605 5603 5601 5600 5599 5597 5595 5593 5592 5591 5590 5589 5588 5587 5586 5586 5585 5585 5585 5585 5585 5584 5584 5584 5584 5584 5584 5584 5584 5583 5583 5584 5584 5584 5584 5584 5585 5586 5586 5587 5588 5587 5587 5588 5589 5589 5590 5591 5591 5593 5594 5594 5594
5699 5696 5693 5690 5686 5683 5679 5675 5671 5667 5664 5661 5658 5654 5651 5647 5644 5640 5636 5632 5629 5622 5623 5632 5627 5609 5601 5601 5599 5599 5599 5598 5597 5597 5595 5593 5591 5589 5587 5585 5584 5582 5581 5580 5579 5578 5577 5576 5575 5575 5574 5574 5574 5574 5574 5574 5574 5574 5574 5574 5573 5573 5574 5574 5574 5574 5574 5574 5575 5575 5576 5576 5578 5578 5579 5579 5579 5581 5581 5582 5583 5583 5584 5586 5587 5587
5696 5693 5689 5686 5682 5678 5675 5670 5666 5662 5658 5655 5651 5648 5645 5642 5638 5634 5630 5625 5621 5615 5616 5623 5620 5605 5594 5591 5590 5588 5588 5588 5588 5588 5587 5585 5582 5579 5576 5574 5573 5572 5571 5570 5569 5567 5566 5565 5565 5564 5564 5563 5563 5563 5564 5564 5564 5564 5564 5564 5563 5563 5563 5563 5564 5564 5564 5564 5565 5565 5565 5566 5567 5568 5569 5570 5570 5571 5572 5573 5574 5574 5576 5577 5578 5579
5692 5689 5684 5680 5676 5673 5669 5666 5662 5657 5653 5649 5645 5640 5637 5636 5632 5627 5623 5618 5609 5606 5610 5612 5608 5599 5588 5581 5580 5578 5577 5577 5577 5577 5577 5575 5572 5569 5567 5564 5562 5561 5560 5559 5558 5557 5556 5555 5554 5553 5553 5553 5553 5553 5553 5553 5554 5554 5554 5554 5553 5553 5553 5553 5553 5554 5554 5554 5554 5555 5555 5556 5557 5558 5559 5559 5560 5561 5562 5564 5564 5565 5567 5568 5569 5570
5688 5685 5681 5675 5671 5667 5663 5660 5657 5652 5647 5641 5637 5631 5624 5623 5621 5616 5614 5608 5598 5596 5600 5599 5595 5591 5583 5574 5571 5569 5566 5566 5565 5565 5565 5564 5562 5559 5556 5554 5553 5552 5550 5549 5548 5547 5546 5545 5543 5542 5542 5542 5542 5542 5543 5543 5543 5544 5543 5543 5543 5543 5543 5542 5542 5543 5543 5543 5544 5544 5545 5545 5546 5547 5548 5549 5549 5550 5552 5553 5554 5555 5557 5558 5559 5560
5685 5681 5676 5670 5667 5663 5656 5653 5650 5645 5641 5635 5628 5623 5614 5609 5607 5603 5603 5600 5591 5589 5592 5591 5585 5581 5577 5571 5567 5563 5559 5558 5557 5555 5554 5553 5551 5549 5546 5544 5543 5542 5540 5539 5538 5537 5536 5535 5533 5532 5531 5531 5531 5531 5531 5531 5532 5532 5532 5532 5532 5532 5532 5532 5531 5532 5532 5532 5533 5533 5534 5534 5535 5536 5537 5538 5539 5540 5541 5542 5544 5545 5546 5548 5549 5550
5683 5679 5674 5666 5661 5659 5651 5645 5640 5635 5634 5630 5623 5617 5610 5603 5596 5591 5591 5589 5583 5582 5585 5585 5578 5570 5567 5562 5560 5559 5553 5549 5548 5545 5544 5543 5542 5539 5536 5534 5533 5532 5531 5529 5528 5527 5526 5525 5523 5522 5520 5520 5519 5519 5519 5519 5519 5520 5520 5520 5520 5520 5520 5520 5520 5520 5520 5520 5521 5522 5522 5523 5523 5524 5525 5527 5528 5529 5530 5531 5533 5534 5535 5537 5539 5540
5678 5675 5671 5663 5655 5653 5649 5642 5634 5627 5624 5623 5618 5612 5606 5600 5591 5583 5579 5576 5571 5568 5571 5574 5568 5560 5556 5549 5547 5548 5544 5540 5538 5534 5533 5532 5530 5529 5526 5525 5524 5522 5521 5519 5518 5517 5515 5514 5513 5512 5510 5508 5507 5506 5506 5506 5506 5507 5507 5508 5508 5508 5508 5507 5507 5507 5507 5507 5508 5509 5510 5511 5512 5513 5514 5515 5516 5517 5519 5520 5521 5523 5524 5526 5528 5529
5673 5671 5666 5660 5652 5646 5644 5640 5632 5622 5616 5613 5610 5606 5600 5594 5586 5576 5571 5568 5562 5555 5555 5560 5556 5548 5545 5538 5534 5535 5532 5530 5529 5525 5524 5522 5519 5519 5516 5514 5514 5512 5510 5509 5507 5505 5503 5501 5500 5500 5499 5498 5496 5494 5494 5493 5493 5493 5494 5494 5495 5495 5495 5495 5494 5494 5494 5494 5494 5495 5496 5498 5499 5500 5501 5503 5504 5505 5507 5508 5509 5511 5512 5514 5516 5518
5665 5668 5664 5657 5651 5644 5637 5634 5628 5618 5608 5603 5599 5595 5590 5586 5579 5567 5559 5558 5555 5545 5542 5548 5546 5538 5535 5528 5524 5525 5523 5522 5522 5518 5516 5514 5511 5510 5508 5506 5505 5503 5501 5499 5496 5494 5492 5490 5487 5485 5485 5485 5484 5482 5482 5481 5481 5480 5480 5480 5481 5481 5481 5482 5482 5482 5481 5480 5481 5481 5482 5484 5485 5487 5488 5490 5491 5492 5494 5496 5497 5499 5501 5503 5505 5506
5653 5658 5660 5654 5647 5643 5634 5625 5623 5618 5606 5596 5589 5585 5578 5574 5571 5563 5551 5546 5545 5538 5535 5540 5540 5532 5527 5519 5515 5517 5517 5515 5514 5511 5507 5504 5502 5499 5498 5496 5494 5492 5490 5487 5486 5483 5481 5478 5475 5472 5470 5470 5470 5469 5469 5469 5468 5468 5467 5467 5467 5467 5467 5467 5468 5469 5469 5469 5468 5467 5468 5469 5471 5473 5475 5476 5478 5480 5481 5483 5484 5487 5489 5490 5493 5495
5645 5644 5651 5650 5640 5636 5630 5618 5612 5612 5605 5595 5585 5578 5570 5561 5558 5555 5547 5541 5537 5532 5528 5530 5531 5525 5517 5512 5507 5506 5506 5504 5501 5499 5495 5493 5490 5487 5485 5483 5481 5479 5477 5474 5473 5471 5468 5466 5463 5461 5458 5455 5454 5454 5455 5455 5454 5454 5454 5453 5453 5452 5453 5453 5453 5454 5456 5457 5457 5456 5455 5455 5457 5459 5461 5463 5465 5467 5468 5470 5472 5474 5477 5479 5481 5483
5642 5632 5634 5640 5634 5628 5623 5612 5603 5598 5595 5589 5578 5569 5563 5556 5549 5545 5543 5539 5533 5527 5522 5519 5519 5515 5508 5504 5500 5496 5495 5494 5492 5489 5485 5483 5481 5477 5474 5472 5469 5466 5463 5462 5460 5458 5455 5453 5450 5448 5446 5442 5440 5440 5440 5440 5439 5439 5440 5439 5439 5439 5439 5439 5439 5440 5441 5442 5444 5445 5445 5443 5443 5445 5447 5449 5451 5453 5455 5457 5459 5462 5464 5467 5469 5471
5639 5628 5622 5626 5626 5620 5613 5605 5596 5586 5578 5573 5564 5556 5551 5548 5542 5537 5537 5536 5528 5520 5514 5509 5507 5505 5499 5495 5493 5490 5489 5488 5485 5481 5477 5473 5470 5466 5463 5460 5457 5454 5451 5450 5448 5446 5444 5440 5436 5433 5432 5430 5427 5426 5427 5426 5425 5424 5425 5425 5424 5424 5425 5425 5426 5426 5427 5427 5428 5430 5432 5433 5432 5432 5433 5435 5437 5439 5442 5444 5446 5449 5451 5454 5456 5458
5631 5624 5617 5616 5614 5611 5606 5599 5591 5581 5571 5564 5556 5547 5541 5537 5534 5528 5526 5527 5523 5515 5509 5502 5497 5494 5490 5488 5487 5485 5482 5479 5476 5473 5469 5466 5462 5458 5455 5452 5449 5445 5442 5440 5438 5435 5433 5430 5427 5423 5420 5418 5415 5413 5413 5413 5411 5410 5411 5411 5411 5410 5409 5410 5411 5412 5413 5413 5413 5415 5417 5419 5420 5421 5421 5422 5423 5425 5428 5430 5432 5435 5438 5441 5443 5445
5626 5618 5613 5611 5608 5604 5600 5592 5583 5574 5566 5562 5554 5543 5535 5531 5528 5522 5515 5513 5512 5510 5505 5499 5494 5489 5484 5481 5479 5477 5475 5472 5468 5465 5462 5459 5456 5452 5449 5445 5441 5437 5434 5432 5429 5426 5423 5420 5418 5414 5411 5408 5404 5401 5400 5400 5398 5397 5397 5397 5397 5397 5396 5394 5395 5396 5397 5399 5399 5400 5401 5403 5405 5407 5408 5410 5411 5412 5414 5416 5419 5420 5423 5427 5429 5432
5624 5614 5607 5604 5601 5598 5594 5586 5578 5569 5559 5551 5544 5535 5529 5526 5523 5518 5512 5505 5501 5499 5496 5492 5488 5484 5480 5476 5472 5469 5467 5465 5461 5457 5453 5450 5447 5444 5440 5436 5432 5428 5425 5423 5420 5416 5412 5409 5407 5404 5401 5398 5394 5391 5388 5387 5385 5383 5382 5382 5382 5382 5382 5381 5380 5380 5381 5383 5384 5386 5387 5388 5390 5392 5394 5397 5399 5400 5401 5403 5405 5407 5409 5412 5415 5417
5619 5611 5601 5591 5581 5576 5574 5568 5561 5555 5547 5538 5530 5525 5522 5520 5517 5513 5508 5503 5497 5492 5489 5484 5478 5476 5475 5469 5464 5461 5459 5457 5454 5449 5445 5441 5437 5433 5429 5425 5421 5417 5414 5411 5407 5404 5400 5397 5394 5392 5389 5386 5383 5380 5377 5374 5372 5369 5368 5367 5366 5366 5365 5365 5366 5366 5366 5367 5369 5371 5373 5375 5376 5378 5380 5383 5385 5387 5388 5389 5392 5394 5396 5398 5401 5403
5614 5606 5596 5584 5570 5560 5554 5549 5542 5536 5532 5528 5522 5518 5515 5513 5509 5504 5500 5495 5490 5486 5485 5479 5471 5469 5469 5464 5457 5452 5450 5448 5445 5441 5437 5432 5427 5422 5418 5414 5410 5406 5402 5398 5393 5390 5386 5383 5380 5377 5375 5372 5369 5366 5364 5361 5359 5356 5353 5352 5351 5350 5349 5349 5350 5350 5351 5351 5353 5355 5358 5361 5364 5365 5366 5368 5371 5374 5376 5377 5379 5381 5383 5385 5387 5390
5610 5604 5597 5587 5575 5564 5557 5551 5543 5534 5526 5520 5515 5512 5508 5505 5501 5497 5492 5486 5480 5476 5476 5474 5465 5460 5460 5457 5451 5446 5441 5439 5436 5432 5428 5423 5418 5413 5408 5404 5400 5396 5391 5385 5381 5378 5375 5370 5366 5362 5359 5357 5354 5351 5349 5346 5344 5341 5339 5337 5335 5333 5332 5332 5333 5334 5335 5336 5337 5339 5342 5345 5349 5351 5354 5355 5356 5360 5363 5365 5366 5369 5371 5373 5375 5378
5605 5600 5596 5589 5579 5569 5562 5553 5544 5535 5525 5517 5512 5507 5502 5499 5495 5491 5485 5479 5473 5468 5466 5465 5460 5453 5450 5448 5443 5438 5433 5430 5427 5422 5417 5413 5408 5403 5398 5394 5389 5385 5380 5376 5372 5368 5364 5358 5352 5347 5344 5342 5339 5336 5333 5331 5329 5326 5323 5321 5319 5317 5316 5315 5315 5317 5318 5319 5320 5323 5326 5329 5332 5336 5339 5341 5343 5346 5350 5352 5354 5356 5359 5362 5364 5366
5602 5595 5590 5586 5578 5569 5561 5552 5542 5533 5525 5516 5510 5504 5499 5494 5489 5485 5480 5473 5467 5462 5457 5455 5452 5446 5442 5439 5435 5430 5425 5421 5418 5414 5409 5404 5399 5394 5390 5385 5380 5375 5370 5366 5362 5358 5352 5346 5340 5335 5331 5328 5324 5321 5318 5316 5314 5311 5308 5306 5304 5302 5300 5299 5299 5300 5301 5303 5305 5307 5309 5311 5315 5319 5323 5326 5329 5332 5336 5339 5341 5343 5347 5349 5352 5355
5598 5590 5584 5579 5574 5565 5556 5548 5540 5532 5523 5515 5508 5501 5495 5490 5484 5480 5475 5468 5463 5458 5453 5448 5444 5440 5436 5432 5427 5424 5419 5414 5411 5407 5402 5397 5392 5387 5382 5377 5372 5366 5361 5357 5352 5347 5342 5336 5330 5325 5320 5315 5312 5308 5304 5301 5298 5296 5293 5291 5289 5286 5284 5283 5283 5284 5285 5287 5289 5290 5291 5292 5296 5301 5305 5310 5314 5318 5322 5326 5328 5330 5334 5336 5339 5343
5591 5585 5578 5572 5567 5559 5551 5544 5537 5529 5520 5512 5504 5497 5490 5485 5481 5476 5471 5463 5457 5452 5448 5442 5436 5433 5431 5426 5420 5417 5413 5408 5404 5399 5395 5390 5385 5379 5373 5368 5363 5358 5352 5347 5342 5337 5331 5325 5320 5315 5310 5305 5301 5297 5292 5288 5285 5281 5278 5276 5274 5272 5270 5268 5268 5268 5269 5271 5273 5274 5274 5275 5277 5281 5286 5292 5298 5303 5307 5312 5315 5318 5320 5323 5326 5330
5584 5577 5571 5565 5560 5553 5545 5537 5530 5523 5516 5508 5499 5492 5487 5482 5478 5473 5466 5458 5450 5444 5439 5434 5429 5425 5422 5417 5412 5409 5405 5401 5397 5392 5387 5382 5376 5371 5366 5361 5356 5350 5344 5338 5333 5327 5322 5316 5311 5305 5300 5295 5291 5287 5283 5279 5274 5271 5267 5264 5261 5259 5257 5255 5254 5254 5254 5256 5258 5258 5258 5258 5260 5263 5268 5274 5280 5286 5292 5296 5300 5304 5307 5309 5312 5316
5578 5570 5563 5557 5552 5546 5539 5531 5522 5514 5509 5502 5494 5489 5485 5479 5473 5468 5462 5455 5447 5439 5432 5426 5422 5417 5413 5408 5404 5401 5398 5395 5390 5385 5379 5373 5368 5364 5359 5354 5349 5344 5337 5331 5326 5320 5314 5309 5303 5298 5292 5287 5282 5278 5274 5270 5265 5261 5258 5254 5251 5248 5246 5244 5242 5241 5242 5242 5242 5242 5242 5243 5244 5248 5253 5257 5261 5268 5274 5279 5285 5290 5294 5296 5298 5302
5574 5568 5560 5552 5546 5540 5533 5526 5519 5510 5501 5496 5491 5485 5479 5472 5465 5461 5456 5450 5443 5437 5430 5423 5418 5413 5408 5403 5398 5394 5391 5388 5384 5379 5373 5367 5361 5357 5353 5348 5343 5338 5332 5326 5320 5314 5308 5303 5297 5292 5286 5281 5276 5271 5267 5262 5257 5253 5250 5246 5243 5240 5237 5234 5232 5231 5230 5229 5228 5228 5229 5230 5231 5234 5239 5242 5244 5250 5257 5262 5269 5275 5278 5281 5285 5289
5571 5565 5559 5550 5541 5535 5528 5520 5513 5506 5497 5490 5484 5477 5470 5465 5459 5455 5452 5446 5438 5431 5426 5420 5415 5410 5404 5399 5394 5388 5384 5381 5378 5374 5369 5363 5357 5351 5346 5342 5337 5331 5326 5321 5314 5308 5302 5297 5291 5286 5281 5276 5270 5265 5260 5255 5251 5247 5243 5239 5235 5232 5229 5227 5225 5223 5220 5218 5217 5217 5218 5219 5220 5222 5226 5228 5230 5235 5241 5246 5252 5258 5262 5265 5271 5275
5567 5560 5555 5547 5538 5530 5523 5515 5508 5502 5496 5487 5478 5470 5465 5460 5454 5448 5447 5444 5434 5425 5418 5412 5407 5402 5397 5393 5388 5383 5379 5376 5375 5370 5363 5357 5352 5347 5341 5336 5331 5326 5320 5315 5309 5303 5297 5291 5285 5279 5275 5270 5265 5259 5254 5249 5244 5240 5237 5233 5229 5225 5223 5220 5218 5216 5213 5211 5209 5209 5209 5209 5210 5212 5214 5217 5219 5223 5227 5232 5237 5242 5245 5251 5257 5262
5564 5557 5550 5544 5535 5526 5519 5513 5507 5500 5493 5485 5477 5468 5459 5454 5447 5438 5433 5432 5428 5421 5415 5407 5401 5396 5391 5386 5382 5378 5373 5370 5369 5366 5359 5351 5347 5342 5337 5332 5326 5320 5315 5309 5303 5297 5291 5286 5280 5275 5269 5264 5260 5254 5249 5244 5240 5235 5231 5228 5224 5220 5217 5215 5213 5210 5208 5206 5204 5202 5202 5202 5203 5204 5206 5208 5211 5213 5216 5220 5224 5228 5232 5238 5244 5249
5562 5555 5547 5540 5533 5526 5517 5509 5500 5492 5485 5478 5473 5465 5456 5449 5444 5436 5428 5424 5420 5415 5410 5404 5397 5393 5387 5382 5376 5371 5366 5362 5361 5359 5353 5347 5342 5337 5332 5328 5322 5315 5310 5304 5297 5292 5287 5281 5276 5272 5266 5261 5256 5251 5245 5240 5235 5231 5227 5224 5220 5216 5213 5210 5208 5206 5204 5201 5199 5198 5197 5196 5197 5198 5200 5201 5203 5206 5208 5210 5214 5217 5221 5227 5232 5237
5561 5554 5547 5539 5532 5525 5516 5506 5496 5486 5478 5470 5466 5463 5455 5446 5440 5435 5430 5426 5419 5411 5404 5398 5393 5388 5383 5377 5371 5366 5359 5354 5352 5350 5346 5340 5336 5331 5325 5321 5316 5311 5306 5300 5293 5287 5281 5276 5271 5267 5263 5258 5252 5247 5242 5237 5232 5228 5224 5220 5216 5212 5209 5207 5205 5202 5200 5198 5196 5194 5193 5193 5192 5193 5195 5196 5198 5199 5201 5204 5207 5210 5213 5217 5222 5226
5561 5554 5547 5539 5529 5521 5514 5507 5498 5488 5478 5469 5461 5456 5452 5446 5439 5432 5426 5423 5419 5412 5403 5394 5388 5382 5377 5371 5367 5361 5355 5347 5343 5341 5337 5332 5329 5324 5318 5313 5309 5304 5300 5296 5290 5284 5278 5272 5267 5263 5259 5254 5249 5244 5240 5235 5230 5226 5222 5217 5213 5210 5207 5204 5202 5200 5197 5195 5194 5192 5191 5190 5189 5190 5191 5192 5193 5195 5196 5199 5201 5204 5207 5210 5214 5218
5557 5550 5543 5536 5528 5518 5509 5503 5497 5489 5479 5469 5459 5452 5447 5443 5438 5430 5421 5415 5411 5406 5400 5391 5384 5378 5371 5366 5360 5356 5351 5344 5338 5334 5330 5325 5321 5318 5313 5308 5303 5298 5293 5289 5285 5280 5275 5270 5264 5259 5254 5250 5246 5241 5237 5232 5228 5224 5220 5215 5211 5208 5205 5202 5200 5198 5195 5193 5192 5190 5189 5188 5187 5188 5188 5189 5190 5192 5193 5195 5197 5200 5202 5205 5208 5212
5550 5544 5537 5531 5524 5516 5506 5498 5491 5484 5476 5468 5462 5455 5445 5436 5429 5423 5416 5409 5402 5397 5394 5388 5381 5374 5368 5362 5356 5350 5345 5341 5334 5329 5325 5320 5315 5311 5307 5302 5298 5294 5290 5285 5279 5274 5270 5266 5261 5256 5251 5246 5242 5238 5234 5229 5226 5222 5218 5213 5209 5206 5203 5200 5198 5196 5194 5192 5190 5189 5188 5187 5186 5186 5186 5187 5188 5189 5191 5192 5194 5197 5199 5201 5204 5207
5544 5537 5531 5524 5518 5512 5505 5495 5486 5479 5472 5465 5457 5450 5440 5430 5422 5415 5409 5404 5398 5393 5388 5383 5377 5370 5363 5358 5353 5347 5342 5337 5331 5326 5321 5316 5311 5306 5301 5297 5292 5289 5285 5281 5276 5270 5266 5262 5257 5253 5248 5243 5239 5235 5231 5227 5223 5219 5215 5211 5208 5204 5201 5199 5196 5194 5193 5191 5189 5188 5187 5186 5186 5185 5186 5186 5187 5188 5189 5190 5192 5194 5196 5198 5200 5202
5542 5534 5528 5520 5513 5507 5502 5496 5489 5480 5471 5460 5450 5443 5436 5427 5419 5412 5406 5402 5397 5390 5383 5378 5372 5366 5359 5353 5348 5343 5338 5333 5328 5322 5317 5313 5307 5302 5296 5292 5287 5283 5279 5275 5271 5266 5262 5257 5253 5249 5245 5240 5236 5232 5228 5224 5220 5217 5213 5209 5206 5203 5200 5197 5195 5193 5191 5190 5188 5187 5186 5185 5185 5185 5185 5185 5186 5187 5188 5189 5190 5191 5193 5194 5196 5198
5539 5532 5526 5519 5512 5504 5497 5491 5486 5478 5468 5458 5449 5442 5435 5428 5420 5413 5406 5399 5392 5385 5379 5372 5367 5360 5354 5348 5342 5338 5332 5327 5323 5318 5312 5308 5303 5298 5292 5287 5282 5278 5274 5270 5265 5261 5257 5253 5249 5245 5241 5236 5232 5228 5225 5221 5217 5214 5210 5207 5204 5201 5198 5196 5193 5191 5190 5188 5187 5186 5185 5185 5184 5184 5184 5184 5185 5185 5186 5186 5187 5188 5189 5190 5192 5193
5537 5530 5524 5517 5511 5505 5497 5488 5481 5475 5469 5462 5453 5442 5433 5427 5421 5413 5404 5396 5388 5381 5374 5368 5361 5355 5348 5342 5336 5331 5327 5321 5316 5311 5307 5302 5298 5293 5288 5283 5278 5274 5269 5265 5261 5257 5253 5249 5245 5241 5237 5233 5229 5225 5222 5218 5214 5211 5208 5204 5201 5199 5196 5194 5192 5190 5188 5187 5186 5185 5184 5184 5183 5183 5183 5183 5183 5183 5184 5184 5184 5185 5186 5186 5187 5188
5534 5527 5521 5515 5508 5502 5496 5488 5480 5473 5465 5458 5451 5444 5436 5426 5417 5409 5401 5394 5387 5379 5372 5365 5359 5352 5345 5338 5331 5326 5321 5315 5309 5305 5301 5296 5292 5287 5282 5278 5273 5269 5265 5260 5256 5252 5248 5245 5241 5237 5234 5230 5226 5222 5218 5215 5211 5208 5205 5202 5199 5196 5194 5192 5190 5188 5187 5186 5184 5184 5183 5182 5182 5181 5181 5181 5181 5181 5181 5181 5182 5182 5182 5183 5183 5184
5531 5524 5518 5512 5506 5499 5494 5488 5480 5472 5462 5452 5445 5439 5431 5422 5414 5405 5397 5390 5384 5377 5370 5363 5356 5349 5343 5337 5329 5322 5317 5310 5304 5299 5295 5290 5286 5281 5277 5272 5268 5264 5260 5256 5251 5247 5243 5240 5237 5233 5230 5226 5222 5219 5215 5212 5209 5205 5202 5199 5197 5194 5191 5189 5187 5186 5185 5184 5182 5182 5181 5180 5180 5180 5179 5179 5179 5178 5179 5179 5179 5179 5179 5179 5180 5180
5529 5522 5515 5509 5503 5496 5489 5483 5478 5474 5468 5459 5449 5438 5429 5420 5412 5404 5395 5388 5381 5374 5368 5361 5354 5346 5338 5331 5325 5318 5312 5306 5300 5294 5289 5285 5280 5275 5271 5267 5262 5258 5254 5250 5246 5242 5238 5235 5232 5228 5225 5221 5218 5215 5212 5209 5205 5202 5199 5197 5194 5192 5189 5187 5185 5183 5182 5181 5180 5180 5179 5178 5178 5177 5177 5176 5176 5176 5176 5176 5176 5176 5176 5176 5176 5177
5527 5521 5514 5506 5499 5491 5484 5477 5471 5465 5461 5455 5446 5437 5428 5419 5410 5402 5394 5387 5379 5371 5364 5358 5352 5345 5336 5327 5319 5312 5307 5301 5295 5289 5284 5279 5274 5269 5265 5260 5256 5252 5248 5244 5241 5237 5233 5230 5227 5223 5220 5217 5214 5211 5208 5205 5202 5199 5196 5194 5191 5189 5187 5185 5182 5181 5179 5179 5178 5177 5176 5176 5175 5175 5174 5174 5173 5173 5173 5173 5173 5172 5172 5172 5173 5173
5524 5518 5511 5503 5496 5489 5482 5475 5467 5459 5451 5445 5437 5430 5422 5414 5407 5399 5390 5382 5375 5368 5360 5353 5347 5342 5336 5327 5318 5309 5302 5296 5291 5285 5280 5275 5269 5264 5259 5254 5250 5246 5242 5238 5235 5232 5228 5225 5221 5218 5215 5212 5209 5206 5204 5201 5199 5196 5193 5191 5188 5186 5184 5182 5180 5178 5177 5176 5175 5174 5174 5173 5172 5172 5171 5171 5170 5170 5169 5169 5169 5169 5169 5169 5169 5170